{"data":{"norad_id":47839,"intl_designator":"2021-018BE","name":"STARLINK-2431","alt_names":[],"object_type":"PAYLOAD","status":"ACTIVE","operator":null,"country":"US","launch_date":"2021-03-11","launch_site_code":"AFETR","launch_vehicle":null,"mission":null,"orbit_class":"UNKNOWN","rcs_meters":null,"size_class":null,"mass_kg":null,"dimensions":null,"purposes":["comms"],"wikipedia_slug":null,"has_3d_model":false,"image_url":null,"decayed_at":null,"tle_current":{"epoch":"2026-05-24T13:50:42.001728Z","epoch_age_seconds":118557,"freshness":"FRESH","line1":"1 47839U 21018BE  26144.57687502  .00002514  00000+0  92685-4 0  9995","line2":"2 47839  53.1596 224.0140 0001142  90.0240 270.0892 15.31719136288720","mean_motion":15.31719136,"eccentricity":0.0001142,"inclination_deg":53.1596,"raan_deg":224.014,"arg_perigee_deg":90.024,"mean_anomaly_deg":270.0892,"bstar":9.2685e-5,"rev_number":28872,"period_min":94.012013440041,"perigee_km":469.90081716072,"apogee_km":471.46508763785,"semimajor_km":6848.8199523993,"source":"CELESTRAK","updated_at":"2026-05-25T13:38:16.607777Z"}}}